Regional Weather Roundup
Issued by NWS

Home | Current Version | Previous Version | Text Only | Print | Product List | Glossary Off
Versions: 1 2 3 4 5 6 7 8 9 10 11 12 13 14 15 16 17 18 19 20 21 22 23 24 25 26 27

000
ASUS45 KPSR 200410
RWRAZ

ARIZONA HOURLY REGIONAL WEATHER ROUNDUP
NATIONAL WEATHER SERVICE PHOENIX AZ
900 PM MST TUE SEP 19 2017

NOTE: FAIR INDICATES FEW OR NO CLOUDS BELOW 12,000 FEET WITH NO
SIGNIFICANT WEATHER AND/OR OBSTRUCTIONS TO VISIBILITY.

AZZ001>003-036-200500-
NORTHWEST ARIZONA

CITY           SKY/WX    TMP DP  RH WIND       PRES   REMARKS
BULLHEAD CITY  CLEAR     86  37  17 S6        29.68R
KINGMAN        CLEAR     66  43  43 S5        29.88R
$$

AZZ004>008-015-016-018-200500-
NORTH CENTRAL ARIZONA

CITY           SKY/WX    TMP DP  RH WIND       PRES   REMARKS
GRAND CANYON   PTCLDY    55  30  38 SW7       30.07S
WILLIAMS       PTCLDY    61  32  33 S12G17    30.09R
PRESCOTT       CLEAR     65  35  33 S6        30.00S
FLAGSTAFF      PTCLDY    58  32  37 W8        30.12R
PAYSON           N/A     70  32  24 W7        30.04S
PAGE           CLEAR     78  33  19 W6        29.84R
$$

AZZ009>014-017-200500-
NORTHEAST ARIZONA

CITY           SKY/WX    TMP DP  RH WIND       PRES   REMARKS
WINSLOW        PTCLDY    71  33  24 SW15      29.98R
SAINT JOHNS    CLEAR     64  39  39 S6        30.05R
WINDOW ROCK    PTCLDY    62  28  27 SW9       30.08R
SHOW LOW       CLEAR     64  36  34 S8G15     30.12R
$$

AZZ540-542>544-546-548-200500-
GREATER PHOENIX AREA

CITY           SKY/WX    TMP DP  RH WIND       PRES   REMARKS
PHOENIX        CLEAR     87  31  13 SW3       29.74R
BUCKEYE        CLEAR     81  32  17 SW8       29.76R
LUKE AFB       CLEAR     83  34  17 SW7       29.76R
DEER VALLEY    CLEAR     86  35  16 SW7       29.77R
SCOTTSDALE     CLEAR     88  30  12 W6        29.79R
MESA-GATEWAY   CLEAR     46  23  39 SW8       29.79R
CHANDLER       CLEAR     82  27  13 S8        29.77R
$$

AZZ539-553-200500-
SOUTHWEST MARICOPA COUNTY AND PINAL COUNTY

CITY           SKY/WX    TMP DP  RH WIND       PRES   REMARKS
CASA GRANDE    NOT AVBL
GILA BEND      CLEAR     83  18   9 S8        29.74R
$$

AZZ503-504-507>509-200500-
SOUTHEAST ARIZONA

CITY           SKY/WX    TMP DP  RH WIND       PRES   REMARKS
TUCSON         CLEAR     83  50  31 W8        29.91R
DAVIS-MONTHAN  CLEAR     82  48  30 W6        29.90R
NOGALES        CLEAR     75  54  47 S5        30.00R
SIERRA VISTA   CLEAR     73  51  45 W9        30.05R
DOUGLAS        CLEAR     75  53  46 SW8       30.00R
SAFFORD        CLEAR     82  42  24 NW14      29.88R
$$

AZZ532-200500-
SOUTHWEST ARIZONA

CITY           SKY/WX    TMP DP  RH WIND       PRES   REMARKS
YUMA           CLEAR     86  43  22 W6        29.71R
$$

CAZ041-043-047-048-061-525>527-560>570-200500-
SOUTHERN CALIFORNIA

CITY           SKY/WX    TMP DP  RH WIND       PRES   REMARKS
DOWNTOWN L.A.  CLEAR     69  59  70 W3        29.88R
L.A. AIRPORT   CLEAR     67  63  87 W9        29.88R
SAN DIEGO      CLOUDY    70  61  73 S3        29.91R
BURBANK        CLOUDY    67  56  67 SE6       29.89R
ONTARIO        PTCLDY    67  58  72 W12       29.89R
RIVERSIDE      CLEAR     68  59  73 W6        29.88R
PALM SPRINGS   CLEAR     83  54  36 NW17      29.71R
EL CENTRO NAS  CLEAR     82  46  28 W20       29.71R
IMPERIAL       CLEAR     82  49  31 W15       29.69R
BLYTHE         CLEAR     88  48  25 SW9       29.68R
NEEDLES        CLEAR     88  35  15 S6        29.70R
$$

NVZ020-UTZ003-200500-
SOUTHERN NEVADA-UTAH

CITY           SKY/WX    TMP DP  RH WIND       PRES   REMARKS
LAS VEGAS      CLEAR     83  40  21 SW5       29.73R
SALT LAKE CITY PTCLDY    54  36  50 SW5       29.92R
$$

NMZ009-TXZ055-200500-
NEW MEXICO-WEST TEXAS

CITY           SKY/WX    TMP DP  RH WIND       PRES   REMARKS
ALBUQUERQUE    PTCLDY    74  26  16 W12       29.97R
EL PASO        PTCLDY    86  46  24 W12G24    29.93R
$$


........................KEY........................
SKY/WX - SKY CONDITION/WEATHER
TMP    - TEMPERATURE IN FAHRENHEIT
DP     - DEW POINT IN FAHRENHEIT
RH     - RELATIVE HUMIDITY IN PERCENT
WIND   - DIRECTION AND SPEED IN MILES PER HOUR (MPH)
VRB    - VARIABLE WIND DIRECTION
PRES   - MEAN SEA LEVEL PRESSURE IN INCHES OF MERCURY
         F - FALLING PRESSURE   R - RISING PRESSURE
         S - STEADY PRESSURE
VSB    - VISIBILITY IN MILES
HX     - HEAT INDEX IN FAHRENHEIT
WCI    - WIND CHILL INDEX IN FAHRENHEIT
TC     - TEMPERATURE IN CELSIUS WHICH IS ALSO KNOWN AS
         TEMPERATURE IN CENTIGRADE
AFB    - AIR FORCE BASE
         LUKE AFB IS LUKE AIR FORCE BASE
         DAVIS-MONTHAN IS DAVIS-MONTHAN AIR FORCE BASE
NAS    - NAVAL AIR STATION
         EL CENTRO NAS IS EL CENTRO NAVAL AIR STATION
N/A    - NOT AVAILABLE





USA.gov is the U.S. government's official web portal to all federal, state and local government web resources and services.